Terug naar catalogus

STARLINK-35415

ActiefCommunicatieVLEO
NORAD 65885·PAYLOAD·🇺🇸 United States

Gelanceerd Oct 7, 2025 vanaf Cape Canaveral Space Force Station

Loading…

Volgende Passages (komende 24 uur)

TLE

VersSource: CelesTrak SupGP

Epoch: Sep 14, 2026, 21:30 UTC

1 65885C 25224D   26257.89631944  .00023274  00000+0  68742-3 0  2577
2 65885  53.1577 208.0595 0001573  95.6841 328.1064 15.34388241    14

Volg STARLINK-35415 in realtime met AllMySat

Download on the App Store